• In Belgium
  • List of Countries
  • For 7 days
  • Water Temperature
  • Satellite Maps
  • Weather Map
  • Weather Widgets
  • user-avatar
    Login

    Hourly Weather Satif

    Today, 24 January, Wednesday

    Time Temperature Precipitation Wind Pressure Humidity
    00:00 +5°C° 0 mm 1 mps 677 mmHg 68%
    01:00 +5°C° 0 mm 1 mps 677 mmHg 65%
    02:00 +5°C° 0 mm 1 mps 677 mmHg 63%
    03:00 +5°C° 0 mm 1 mps 677 mmHg 60%
    04:00 +5°C° 0 mm 1 mps 677 mmHg 59%
    05:00 +4°C° 0 mm 1 mps 677 mmHg 58%
    06:00 +4°C° 0 mm 1 mps 677 mmHg 56%
    07:00 +6°C° 0 mm 1 mps 677 mmHg 50%
    08:00 +8°C° 0 mm 1 mps 678 mmHg 44%
    09:00 +10°C° 0 mm 1 mps 679 mmHg 38%
    10:00 +11°C° 0 mm 1 mps 679 mmHg 33%
    11:00 +12°C° 0 mm 1 mps 679 mmHg 29%
    12:00 +14°C° 0 mm 1 mps 680 mmHg 25%
    13:00 +14°C° 0 mm 1 mps 679 mmHg 25%
    14:00 +14°C° 0 mm 1 mps 679 mmHg 25%
    15:00 +14°C° 0 mm 1 mps 679 mmHg 25%
    16:00 +13°C° 0 mm 1 mps 678 mmHg 31%
    17:00 +11°C° 0 mm 1 mps 678 mmHg 37%
    18:00 +9°C° 0 mm 1 mps 677 mmHg 43%
    19:00 +9°C° 0 mm 1 mps 678 mmHg 44%
    20:00 +8°C° 0 mm 2 mps 678 mmHg 44%
    21:00 +7°C° 0 mm 2 mps 678 mmHg 45%
    22:00 +7°C° 0 mm 2 mps 678 mmHg 48%
    23:00 +7°C° 0 mm 2 mps 677 mmHg 50%

    Tomorrow, 25 January, Thursday

    Time Temperature Precipitation Wind Pressure Humidity
    00:00 +6°C° 0 mm 2 mps 677 mmHg 53%
    01:00 +6°C° 0 mm 2 mps 677 mmHg 58%
    02:00 +5°C° 0 mm 3 mps 677 mmHg 63%
    03:00 +4°C° 0 mm 3 mps 676 mmHg 68%
    04:00 +4°C° 0 mm 3 mps 676 mmHg 72%
    05:00 +4°C° 0 mm 3 mps 676 mmHg 75%
    06:00 +3°C° 0 mm 3 mps 676 mmHg 79%
    07:00 +5°C° 0 mm 3 mps 676 mmHg 75%
    08:00 +7°C° 0 mm 3 mps 677 mmHg 71%
    09:00 +7°C° 0 mm 4 mps 677 mmHg 67%
    10:00 +10°C° 0 mm 4 mps 677 mmHg 61%
    11:00 +11°C° 0 mm 4 mps 677 mmHg 54%
    12:00 +12°C° 0 mm 4 mps 677 mmHg 48%
    13:00 +12°C° 0 mm 4 mps 676 mmHg 48%
    14:00 +12°C° 0 mm 4 mps 676 mmHg 48%
    15:00 +12°C° 0 mm 4 mps 675 mmHg 48%
    16:00 +11°C° 0 mm 4 mps 675 mmHg 54%
    17:00 +9°C° 0 mm 3 mps 674 mmHg 61%
    18:00 +8°C° 0 mm 3 mps 674 mmHg 67%
    19:00 +7°C° 0 mm 3 mps 674 mmHg 70%
    20:00 +7°C° 0 mm 3 mps 674 mmHg 73%
    21:00 +5°C° 0 mm 3 mps 674 mmHg 76%
    22:00 +5°C° 0 mm 3 mps 673 mmHg 77%
    23:00 +5°C° 0 mm 3 mps 673 mmHg 78%

    Day after tomorrow, 26 January, Friday

    Time Temperature Precipitation Wind Pressure Humidity
    00:00 +4°C° 0 mm 4 mps 673 mmHg 79%
    01:00 +4°C° 0 mm 4 mps 672 mmHg 80%
    02:00 +4°C° 0 mm 3 mps 672 mmHg 82%
    03:00 +4°C° 0 mm 3 mps 672 mmHg 83%
    04:00 +3°C° 0 mm 3 mps 671 mmHg 85%
    05:00 +3°C° 0 mm 3 mps 671 mmHg 86%
    06:00 +3°C° 0 mm 3 mps 671 mmHg 87%
    07:00 +4°C° 0 mm 3 mps 671 mmHg 82%
    08:00 +5°C° 0 mm 3 mps 672 mmHg 77%
    09:00 +7°C° 0 mm 4 mps 672 mmHg 72%
    10:00 +8°C° 0 mm 4 mps 672 mmHg 66%
    11:00 +10°C° 0 mm 4 mps 672 mmHg 61%
    12:00 +10°C° 0 mm 5 mps 672 mmHg 56%
    13:00 +9°C° 0.5 mm 5 mps 672 mmHg 61%
    14:00 +8°C° 0.5 mm 4 mps 672 mmHg 66%
    15:00 +7°C° 0.5 mm 4 mps 672 mmHg 71%
    16:00 +6°C° 1 mm 4 mps 672 mmHg 75%
    17:00 +5°C° 1 mm 4 mps 672 mmHg 78%
    18:00 +4°C° 1 mm 4 mps 672 mmHg 82%
    19:00 +4°C° 0.9 mm 4 mps 672 mmHg 81%
    20:00 +3°C° 0.9 mm 3 mps 672 mmHg 79%
    21:00 +3°C° 0.9 mm 3 mps 672 mmHg 77%
    22:00 +3°C° 0.4 mm 3 mps 672 mmHg 77%
    23:00 +3°C° 0.4 mm 2 mps 672 mmHg 77%

    27 January, Saturday

    Time Temperature Precipitation Wind Pressure Humidity
    00:00 +3°C° 0.4 mm 2 mps 672 mmHg 77%
    01:00 +3°C° 0.2 mm 2 mps 671 mmHg 77%
    02:00 +3°C° 0.2 mm 1 mps 671 mmHg 78%
    03:00 +3°C° 0.2 mm 1 mps 671 mmHg 79%
    04:00 +3°C° 0.3 mm 1 mps 670 mmHg 80%
    05:00 +2°C° 0.3 mm 2 mps 670 mmHg 82%
    06:00 +2°C° 0.3 mm 2 mps 670 mmHg 83%
    07:00 +2°C° 1.6 mm 2 mps 670 mmHg 85%
    08:00 +2°C° 1.6 mm 2 mps 670 mmHg 86%
    09:00 +2°C° 1.6 mm 2 mps 670 mmHg 87%
    10:00 +1°C° 2.1 mm 3 mps 670 mmHg 90%
    11:00 +1°C° 2.1 mm 3 mps 670 mmHg 92%
    12:00 0°C° 2.1 mm 4 mps 670 mmHg 94%
    13:00 0°C° 1.9 mm 4 mps 670 mmHg 94%
    14:00 0°C° 1.9 mm 5 mps 670 mmHg 94%
    15:00 -1°C° 1.9 mm 6 mps 669 mmHg 94%
    16:00 -1°C° 1 mm 6 mps 670 mmHg 94%
    17:00 -1°C° 1 mm 6 mps 670 mmHg 94%
    18:00 -1°C° 1 mm 5 mps 670 mmHg 95%
    19:00 0°C° 0.4 mm 5 mps 670 mmHg 95%
    20:00 0°C° 0.4 mm 5 mps 670 mmHg 95%
    21:00 0°C° 0.4 mm 4 mps 671 mmHg 95%
    22:00 0°C° 0.4 mm 4 mps 671 mmHg 95%
    23:00 +1°C° 0.4 mm 3 mps 670 mmHg 95%

    28 January, Sunday

    Time Temperature Precipitation Wind Pressure Humidity
    00:00 +1°C° 0.4 mm 3 mps 670 mmHg 95%
    01:00 0°C° 0.5 mm 3 mps 670 mmHg 94%
    02:00 0°C° 0.5 mm 3 mps 670 mmHg 93%
    03:00 0°C° 0.5 mm 3 mps 670 mmHg 92%
    04:00 0°C° 0.6 mm 3 mps 670 mmHg 92%
    05:00 0°C° 0.6 mm 3 mps 670 mmHg 93%
    06:00 0°C° 0.6 mm 3 mps 670 mmHg 93%
    07:00 0°C° 0.5 mm 3 mps 671 mmHg 92%
    08:00 0°C° 0.5 mm 3 mps 671 mmHg 92%
    09:00 +2°C° 0.5 mm 2 mps 672 mmHg 91%
    10:00 +1°C° 0.2 mm 3 mps 672 mmHg 89%
    11:00 +2°C° 0.2 mm 3 mps 673 mmHg 87%
    12:00 +2°C° 0.2 mm 3 mps 673 mmHg 84%
    13:00 +4°C° 0 mm 2 mps 673 mmHg 82%
    14:00 +4°C° 0 mm 2 mps 673 mmHg 79%
    15:00 +4°C° 0 mm 2 mps 673 mmHg 76%
    16:00 +4°C° 0 mm 2 mps 674 mmHg 78%
    17:00 +3°C° 0 mm 2 mps 674 mmHg 79%
    18:00 +2°C° 0 mm 2 mps 674 mmHg 81%
    19:00 +2°C° 0 mm 2 mps 674 mmHg 81%
    20:00 +1°C° 0 mm 2 mps 675 mmHg 82%
    21:00 +1°C° 0 mm 2 mps 675 mmHg 82%
    22:00 +1°C° 0 mm 2 mps 675 mmHg 81%
    23:00 +1°C° 0 mm 2 mps 675 mmHg 80%

    29 January, Monday

    Time Temperature Precipitation Wind Pressure Humidity
    00:00 -1°C° 0 mm 2 mps 675 mmHg 79%
    01:00 +1°C° 0 mm 2 mps 675 mmHg 78%
    02:00 +1°C° 0 mm 2 mps 675 mmHg 77%
    03:00 +1°C° 0 mm 2 mps 675 mmHg 76%
    04:00 +2°C° 0.2 mm 2 mps 675 mmHg 77%
    05:00 +2°C° 0.2 mm 2 mps 676 mmHg 79%
    06:00 +2°C° 0.2 mm 2 mps 676 mmHg 80%
    07:00 +2°C° 0.4 mm 2 mps 676 mmHg 82%
    08:00 +2°C° 0.4 mm 3 mps 676 mmHg 84%
    09:00 +2°C° 0.4 mm 3 mps 677 mmHg 86%
    10:00 +3°C° 0.3 mm 3 mps 677 mmHg 85%
    11:00 +4°C° 0.3 mm 4 mps 677 mmHg 83%
    12:00 +5°C° 0.3 mm 5 mps 677 mmHg 81%
    13:00 +5°C° 0.6 mm 4 mps 676 mmHg 81%
    14:00 +5°C° 0.6 mm 4 mps 676 mmHg 82%
    15:00 +5°C° 0.6 mm 4 mps 675 mmHg 82%
    16:00 +4°C° 0.8 mm 3 mps 675 mmHg 84%
    17:00 +4°C° 0.8 mm 3 mps 675 mmHg 87%
    18:00 +4°C° 0.8 mm 2 mps 675 mmHg 89%
    19:00 +4°C° 0.3 mm 2 mps 675 mmHg 89%
    20:00 +4°C° 0.3 mm 2 mps 675 mmHg 90%
    21:00 +4°C° 0.3 mm 2 mps 676 mmHg 90%
    22:00 +4°C° 0.1 mm 2 mps 675 mmHg 89%
    23:00 +4°C° 0.1 mm 2 mps 675 mmHg 89%
    Show more